This demonstration page uses our WeatherBlox Daily Observations layout. Learn more.

39.08367, -84.50855

Hourly Observations for October 12, 2019

Temp ( °F °C ) Dew Point ( °F °C ) Humidity (%) Winds ( mph kmh ) Pressure ( in mb ) Visibility ( mi km ) Precip ( " mm )
12:05 am 00:05 Cloudy with Light Rain 47 8.3 44 6.7 90 90 NNW 9 15 30.09 1019 5 8.0467 0.01 0.254
12:29 am 00:29 Cloudy with Light Rain 47 8.3 44 6.7 90 90 N 10 17 30.1 1019 6 9.65604 0.02 0.508
12:42 am 00:42 Cloudy with Light Rain 46 7.8 44 6.7 93 93 N 7 11 30.1 1019 4 6.43736 0.03 0.762
12:53 am 00:53 Cloudy with Light Rain 46 7.8 44 6.7 93 93 NNW 5 7 30.08 1019 5 8.0467 0.03 0.762
1:02 am 01:02 Cloudy with Light Rain 46 7.8 44 6.7 93 93 N 7 11 30.1 1019 5 8.0467 0.01 0.254
1:24 am 01:24 Cloudy with Light Rain 47 8.3 45 7.2 93 93 N 8 13 30.1 1019 3 4.82802 0.02 0.508
1:33 am 01:33 Cloudy with Rain 46 7.8 44 6.7 93 93 NNW 9 15 30.1 1019 2.5 4.02335 0.03 0.762
1:42 am 01:42 Cloudy with Light Rain 45 7.2 43 6.1 93 93 N 13 20 30.1 1019 4 6.43736 0.03 0.762
1:53 am 01:53 Cloudy with Light Rain 45 7.2 43 6.1 93 93 NNW 9 15 30.08 1019 5 8.0467 0.04 1.016
2:12 am 02:12 Cloudy 46 7.8 43 6.1 89 89 WNW 10 17 30.11 1020 10 16.0934 0.001 0.001
2:31 am 02:31 Cloudy with Light Rain 46 7.8 41 5 83 83 WNW 7 11 30.12 1020 10 16.0934 0.001 0.001
2:53 am 02:53 Cloudy 45 7.2 41 5 86 86 NW 8 13 30.1 1019 10 16.0934 0.001 0.001
3:12 am 03:12 Cloudy with Light Rain 45 7.2 41 5 86 86 NW 8 13 30.12 1020 10 16.0934 0.001 0.001
3:53 am 03:53 Cloudy 45 7.2 40 4.4 83 83 NW 8 13 30.11 1020 10 16.0934 0.001 0.001
4:53 am 04:53 Cloudy 44 6.7 37 2.8 76 76 NW 9 15 30.13 1020 10 16.0934 0 0
5:53 am 05:53 Clear 42 5.6 33 0.6 71 71 WNW 6 9 30.16 1021 10 16.0934 0 0
6:53 am 06:53 Clear 40 4.4 33 0.6 77 77 WNW 5 7 30.16 1022 10 16.0934 0 0
7:53 am 07:53 Sunny 40 4.4 33 0.6 77 77 VRB 3 6 30.18 1022 10 16.0934 0 0
8:53 am 08:53 Sunny 42 5.6 33 0.6 71 71 W 9 15 30.2 1023 10 16.0934 0 0
9:53 am 09:53 Sunny 44 6.7 32 0 63 63 WNW 9 15 30.21 1023 10 16.0934 0 0
10:53 am 10:53 Sunny 47 8.3 30 -1.1 52 52 WSW 9 15 30.21 1023 10 16.0934 0 0
11:53 am 11:53 Sunny 49 9.4 30 -1.1 48 48 WSW 9 15 30.21 1023 10 16.0934 0 0
12:53 pm 12:53 Sunny 51 10.6 31 -0.6 46 46 WSW 6 9 30.21 1023 10 16.0934 0 0
1:53 pm 13:53 Sunny 53 11.7 33 0.6 47 47 WSW 13 20 30.17 1022 10 16.0934 0 0
2:53 pm 14:53 Sunny 54 12.2 29 -1.7 38 38 Calm 30.15 1021 10 16.0934 0 0
3:53 pm 15:53 Sunny 56 13.3 30 -1.1 37 37 SW 9 15 30.14 1021 10 16.0934 0 0
4:53 pm 16:53 Sunny 57 13.9 30 -1.1 36 36 WSW 9 15 30.12 1020 10 16.0934 0 0
5:53 pm 17:53 Sunny 55 12.8 31 -0.6 40 40 SSW 8 13 30.12 1020 10 16.0934 0 0
6:53 pm 18:53 Sunny 50 10 32 0 50 50 S 8 13 30.11 1020 10 16.0934 0 0
7:53 pm 19:53 Clear 47 8.3 37 2.8 69 69 Calm 30.11 1020 10 16.0934 0 0
8:53 pm 20:53 Clear 43 6.1 38 3.3 82 82 Calm 30.12 1020 10 16.0934 0 0
9:53 pm 21:53 Clear 41 5 38 3.3 89 89 Calm 30.11 1020 10 16.0934 0 0
10:53 pm 22:53 Clear 40 4.4 38 3.3 93 93 Calm 30.11 1020 10 16.0934 0 0
11:53 pm 23:53 Clear 39 3.9 38 3.3 96 96 Calm 30.09 1019 10 16.0934 0 0

Powered by AerisWeather